Location: Sedan
(39.2354°N, 78.5718°W)
Time: 19:27:21
(UTC+00:00)

ISS - Pass Details

Date: 07 December 2021
Orbit: 413 x 422 km, 51.6° (Epoch: 25 January)

Event Time Altitude Azimuth Distance (km) Brightness Sun altitude
Rises 22:16:39 0° 312° (NW) 2,385 0.4 -5.2°
Reaches altitude 10° 22:18:51 10° 321° (NW) 1,515 -0.7 -5.6°
Maximum altitude 22:22:05 39° 32° (NNE) 646 -3.2 -6.2°
Drops below altitude 10° 22:25:16 10° 103° (ESE) 1,502 -1.4 -6.8°
Enters shadow 22:27:01 - 110° (ESE) 2,186 -0.5 -7.1°
